Regional Weather Roundup
Issued by NWS Charleston, SC

Current Version | Previous Version | Graphics & Text | Print | Product List | Glossary On
Versions: 1 2 3 4 5 6 7 8 9 10 11 12 13 14 15 16 17 18 19 20 21 22 23 24 25 26 27 28 29 30 31 32 33 34 35 36 37 38 39 40 41 42 43 44 45 46 47 48 49 50
000
ASUS42 KCHS 240913
RWRCHS

REGIONAL WEATHER ROUNDUP
NATIONAL WEATHER SERVICE CHARLESTON SC
500 AM EDT WED AUG 24 2016

NOTE: "FAIR" INDICATES FEW OR NO CLOUDS BELOW 12,000 FEET WITH NO
SIGNIFICANT WEATHER AND/OR OBSTRUCTIONS TO VISIBILITY.

NOT ALL STATIONS ARE QUALITY CONTROLLED. USE DATA WITH CAUTION...
ESPECIALLY DEWPOINT OBSERVATIONS.

SCZ027-030-031-034>040-042>050-241000-
...SOUTHEAST SOUTH CAROLINA...

CITY           SKY/WX    TMP DP  RH WIND       PRES   REMARKS
N CHARLESTON   PTCLDY    73  68  84 NE5       30.20S
WATERFRONT PRK   N/A     80  73  79 N6        30.17F
MOUNT PLEASANT FAIR      73  72  94 CALM      30.20S
JOHNS ISLAND   FAIR      73  70  88 CALM      30.20R
PINOPOLIS        N/A     77  72  83 E9        30.13F
MONCKS CORNER  FAIR      70  66  88 NE3       30.21S
SUMMERVILLE    FAIR      70  70 100 CALM      30.22S
BEAUFORT MCAS  CLEAR     74  70  87 NE5       30.19S
BEAUFORT ARPT  FAIR      77  72  83 N5        30.18F
HILTON HEAD IS CLEAR     81  70  69 VRB6      30.19S
WALTERBORO     SUNNY     73  73 100 NE3       30.21S
ALLENDALE      FAIR      73  70  88 CALM      30.21R

...SOUTHERN MIDLANDS AND PEE DEE...

CITY           SKY/WX    TMP DP  RH WIND       PRES   REMARKS
GEORGETOWN     FAIR      70  68  94 NE3       30.22S
KINGSTREE      FAIR      68  64  88 N3        30.23S
ORANGEBURG     CLEAR     70  68  93 CALM      30.23R
BARNWELL       NOT AVBL
AIKEN          PTSUNNY   72  68  88 E3        30.27R
MANNING        FAIR      66  64  94 CALM      30.23S
COLUMBIA       PTCLDY    73  69  87 CALM      30.23S
SUMTER         MOCLDY    71  67  90 NE5       30.22R
FLORENCE       CLEAR     70  66  87 NE5       30.25S
MYRTLE BEACH   CLEAR     73  61  64 NE8       30.24S
N MYRTLE BEACH PTCLDY    70  66  87 N6        30.22S

$$

GAZ063-065-086>088-099>101-113>116-118-119-134>141-150-241000-
...SOUTHEAST GEORGIA...

CITY           SKY/WX    TMP DP  RH WIND       PRES   REMARKS
SAVANNAH ARPT  CLEAR     74  70  87 N5        30.18F
HUNTER AAF     CLEAR     75  75  99 CALM      30.15F FOG
FORT STEWART   CLEAR     74  71  93 CALM      30.16S
STATESBORO     CLEAR     74  73  95 CALM      30.20S
SYLVANIA       SUNNY    N/A N/A N/A CALM      30.21S
CLAXTON        FAIR      72  72 100 CALM      30.19S

...CSRA...CENTRAL AND FAR SOUTHEAST GEORGIA...

CITY           SKY/WX    TMP DP  RH WIND       PRES   REMARKS
THOMSON        CLOUDY    79  75  89 MISG      30.27R
AUGUSTA-BUSH   MOCLDY    74  71  91 CALM      30.21S
AUGUSTA-DANIEL CLEAR     78  69  73 E6        30.23S
SWAINSBORO     FAIR      73  72  94 CALM      30.21R
VIDALIA        PTCLDY    75  75 100 CALM      30.19S
EASTMAN        FOG       74  74 100 CALM      30.22R VSB 1
HAZLEHURST     FAIR      76  76 100 CALM      30.17S
ALMA           PTCLDY    75  73  93 CALM      30.17R
WAYCROSS         N/A     77  77 100 CALM      30.16S
JESUP          FAIR      75  75 100 CALM      30.17S
BAXLEY         FAIR      75  75 100 CALM      30.17S
BRUNSWICK      MOCLDY    77  77 100 CALM      30.16S
SAINT SIMONS   PTCLDY    83  73  72 E9        30.14F

$$

SCZ027-028-034-036>038-045-046-048>050-GAZ119-141-241000-
...LAKE AND SUPPLEMENTAL COASTAL OBSERVATIONS...

STATION/POSITION TIME  TEMP    WIND        PRES    WAVE   SWELL
                       AIR SEA DIR/SP/G            HT/PER HT/PER/DIR
                 (UTC) (F)     (DEG/KT/KT) (MB)    (FT/S) (FT/S/D)
WINYAH BAY       NOT AVBL
LAKE MURRAY      0800   77     110/  3/  5 1023.4R
ACE BASIN NERRS  NOT AVBL
FORT PULASKI     0800   83 87   70/ 12/ 14 1022.3F
SAPELO ISLAND    0800   82      80/  4     1021.0F

$$

ANZ835-935-AMZ111-154-330-350-352-354-370-450-454-472-241000-
...C-MAN AND BUOY OBSERVATIONS...

STATION/POSITION TIME  TEMP    WIND        PRES    WAVE   SWELL
                       AIR SEA DIR/SP/G            HT/PER HT/PER/DIR
                 (UTC) (F)     (DEG/KT/KT) (MB)    (FT/S) (FT/S/D)
BUOY 41004       0850   82 84   50/ 16/ 19 1021.3F   4/ 4   2/120/11
BUOY 41008       0850   83 85   70/ 14/ 16 1020.8F   4/ 5   2/ 90/ 7
FOLLY BEACH CMAN 0900   82      80/ 10/ 12 1022.5F
CAPERS NEARSHORE 0808   82 85   80/ 12/ 17 1022.2F
FRIPP NEARSHORE  0808   83 87   90/ 12/ 17 1021.3F


STATION/POSITION TIME  TEMP    WIND        PRES    WAVE   SWELL
                       AIR SEA DIR/SP/G            HT/PER HT/PER/DIR
                 (UTC) (F)     (DEG/KT/KT) (MB)    (FT/S) (FT/S/D)
5E ST. MARYS GA  0801      84                N/A     3/ 6
FRYING PAN BUOY  0800   82 85   60/ 14/ 17 1022.5F
BUOY 41025       0850   78 84   30/ 12/ 16 1023.1S   3/ 8   2/ 60/ 8
CAPE LOOKOUT NC  0900   74     360/  7/  8 1023.3S
BUOY 41002       0850   82 85   50/ 16/ 17 1020.4F   4/ 5   2/ 50/ 7
BUOY 41010       NOT AVBL
ST AUGUSTINE FL  0900   83 84   80/ 15/ 16 1020.9F


$$




USA.gov is the U.S. government's official web portal to all federal, state and local government web resources and services.